Location: Arlington
(40.6323°N, 74.1651°W)
Time: 08:42:26
(UTC+00:00)

Cosmos 1151 Rocket - Pass Details

Date: 22 November 2019
Orbit: 593 x 615 km, 82.5° (Epoch: 06 December)

Event Time Altitude Azimuth Distance (km) Brightness Sun altitude
Rises 22:45:40 0° 195° (SSW) 2,862 6.9 -13.5°
Reaches altitude 10° 22:47:54 10° 198° (SSW) 1,965 6.1 -13.9°
Maximum altitude 22:52:12 61° 279° (W) 698 3.6 -14.7°
Drops below altitude 10° 22:56:34 10° 1° (N) 1,985 5.5 -15.5°
Sets 22:58:50 0° 5° (N) 2,895 6.3 -15.9°
